| time (UTC) | temp F | wind direction | speed knots | gust knots | rain 1hr in | rain 24hr in | rain mn in | humidity % | barometer mb |
| 20260503021618 | 39 | 228 | 4.3 | 0.0 | 0.00 | 0.00 | 0.00 | 66 | 988.7 |
| 20260503020148 | 39 | 232 | 4.3 | 0.0 | 0.00 | 0.00 | 0.00 | 66 | 988.7 |
| 20260503014618 | 40 | 241 | 4.3 | 0.0 | 0.00 | 0.00 | 0.00 | 62 | 988.2 |
| 20260503013136 | 40 | 244 | 4.3 | 0.0 | 0.00 | 0.00 | 0.00 | 62 | 988.2 |
| 20260503011618 | 41 | 239 | 4.3 | 0.0 | 0.00 | 0.00 | 0.00 | 62 | 988.2 |
| 20260503010148 | 41 | 243 | 4.3 | 0.0 | 0.00 | 0.00 | 0.00 | 62 | 988.2 |
| 20260503004617 | 42 | 242 | 4.3 | 0.0 | 0.00 | 0.00 | 0.00 | 51 | 989.0 |
| 20260503003131 | 43 | 241 | 4.3 | 0.0 | 0.00 | 0.00 | 0.00 | 51 | 989.2 |
| 20260503001618 | 44 | 243 | 2.6 | 0.0 | 0.00 | 0.00 | 0.00 | 51 | 989.2 |
| 20260503000153 | 44 | 260 | 2.6 | 0.0 | 0.00 | 0.00 | 0.00 | 51 | 989.2 |
| 20260502234620 | 45 | 278 | 3.5 | 0.0 | 0.00 | 0.00 | 0.00 | 41 | 989.1 |
| 20260502233131 | 46 | 274 | 5.2 | 0.0 | 0.00 | 0.00 | 0.00 | 42 | 989.1 |
| 20260502231619 | 46 | 275 | 6.1 | 0.0 | 0.00 | 0.00 | 0.00 | 42 | 989.1 |
| 20260502230146 | 46 | 276 | 7.0 | 0.0 | 0.00 | 0.00 | 0.00 | 42 | 989.1 |
| 20260502224619 | 46 | 278 | 7.8 | 0.0 | 0.00 | 0.00 | 0.00 | 44 | 989.4 |
| 20260502223137 | 47 | 276 | 8.7 | 0.0 | 0.00 | 0.00 | 0.00 | 41 | 990.2 |
| 20260502221619 | 47 | 276 | 8.7 | 0.0 | 0.00 | 0.00 | 0.00 | 41 | 990.2 |
| 20260502220146 | 47 | 276 | 9.6 | 0.0 | 0.00 | 0.00 | 0.00 | 41 | 990.2 |
| 20260502214619 | 47 | 277 | 9.6 | 0.0 | 0.00 | 0.00 | 0.00 | 43 | 990.2 |
| 20260502213137 | 47 | 276 | 8.7 | 0.0 | 0.00 | 0.00 | 0.00 | 43 | 989.9 |
| 20260502211619 | 47 | 274 | 8.7 | 0.0 | 0.00 | 0.00 | 0.00 | 43 | 989.9 |
| 20260502210148 | 47 | 272 | 8.7 | 0.0 | 0.00 | 0.00 | 0.00 | 43 | 989.9 |
| 20260502204618 | 47 | 271 | 8.7 | 0.0 | 0.00 | 0.00 | 0.00 | 39 | 990.3 |
| 20260502203137 | 47 | 270 | 8.7 | 0.0 | 0.00 | 0.00 | 0.00 | 39 | 990.8 |
| 20260502201619 | 47 | 272 | 8.7 | 0.0 | 0.00 | 0.00 | 0.00 | 39 | 990.8 |
| 20260502200146 | 47 | 271 | 9.6 | 0.0 | 0.00 | 0.00 | 0.00 | 39 | 990.8 |
| 20260502194619 | 47 | 271 | 9.6 | 0.0 | 0.00 | 0.00 | 0.00 | 40 | 990.9 |
| 20260502193132 | 47 | 273 | 9.6 | 0.0 | 0.00 | 0.00 | 0.00 | 40 | 990.9 |
| 20260502191619 | 47 | 276 | 9.6 | 0.0 | 0.00 | 0.00 | 0.00 | 40 | 991.0 |
| 20260502190147 | 47 | 276 | 9.6 | 0.0 | 0.00 | 0.00 | 0.00 | 40 | 991.0 |
| 20260502185128 | 46 | 278 | 9.6 | 0.0 | 0.00 | 0.00 | 0.00 | 45 | 990.9 |
| 20260502183138 | 46 | 280 | 9.6 | 0.0 | 0.00 | 0.00 | 0.00 | 46 | 990.9 |
| 20260502181618 | 46 | 281 | 9.6 | 0.0 | 0.00 | 0.00 | 0.00 | 46 | 990.9 |
| 20260502180154 | 46 | 282 | 9.6 | 0.0 | 0.00 | 0.00 | 0.00 | 46 | 990.9 |
| 20260502170143 | 46 | 277 | 7.8 | 0.0 | 0.00 | 0.00 | 0.00 | 43 | 991.4 |
| 20260502163139 | 45 | 276 | 7.0 | 0.0 | 0.00 | 0.00 | 0.00 | 44 | 990.5 |
| 20260502161618 | 45 | 279 | 7.0 | 0.0 | 0.00 | 0.00 | 0.00 | 44 | 990.5 |
| 20260502160149 | 44 | 280 | 6.1 | 0.0 | 0.00 | 0.00 | 0.00 | 44 | 990.5 |
| 20260502151619 | 43 | 285 | 5.2 | 0.0 | 0.00 | 0.00 | 0.00 | 51 | 990.6 |
| 20260502150152 | 42 | 287 | 5.2 | 0.0 | 0.00 | 0.00 | 0.00 | 51 | 990.6 |
| 20260502130147 | 37 | 337 | 4.3 | 0.0 | 0.00 | 0.00 | 0.00 | 73 | 991.0 |
| 20260502123136 | 35 | 329 | 3.5 | 0.0 | 0.00 | 0.00 | 0.00 | 78 | 991.0 |
| 20260502121619 | 35 | 330 | 3.5 | 0.0 | 0.00 | 0.00 | 0.00 | 78 | 991.0 |
| 20260502120203 | 34 | 323 | 3.5 | 0.0 | 0.00 | 0.00 | 0.00 | 78 | 991.0 |
| 20260502114619 | 33 | 313 | 2.6 | 0.0 | 0.00 | 0.00 | 0.00 | 87 | 990.8 |
| 20260502113140 | 32 | 270 | 0.9 | 0.0 | 0.00 | 0.00 | 0.00 | 88 | 990.8 |
| 20260502111619 | 32 | 225 | 0.9 | 0.0 | 0.00 | 0.00 | 0.00 | 88 | 990.8 |
| 20260502110148 | 31 | 240 | 0.9 | 0.0 | 0.00 | 0.00 | 0.00 | 88 | 990.8 |
| 20260502104618 | 31 | 238 | 1.7 | 0.0 | 0.00 | 0.00 | 0.00 | 86 | 990.6 |
| 20260502103137 | 31 | 219 | 0.9 | 0.0 | 0.00 | 0.00 | 0.00 | 87 | 990.9 |
| 20260502101618 | 31 | 198 | 0.9 | 0.0 | 0.00 | 0.00 | 0.00 | 87 | 990.9 |
| 20260502100148 | 31 | 233 | 0.9 | 0.0 | 0.00 | 0.00 | 0.00 | 87 | 990.9 |
| 20260502090148 | 32 | 310 | 2.6 | 0.0 | 0.00 | 0.00 | 0.00 | 85 | 990.4 |
| 20260502070149 | 32 | 311 | 3.5 | 0.0 | 0.00 | 0.00 | 0.00 | 77 | 989.5 |
| 20260502064618 | 32 | 311 | 3.5 | 0.0 | 0.00 | 0.00 | 0.00 | 74 | 990.7 |
| 20260502063138 | 32 | 304 | 3.5 | 0.0 | 0.00 | 0.00 | 0.00 | 75 | 990.7 |
| 20260502061618 | 32 | 302 | 4.3 | 0.0 | 0.00 | 0.00 | 0.00 | 75 | 990.6 |
| 20260502060205 | 33 | 306 | 4.3 | 0.0 | 0.00 | 0.00 | 0.00 | 75 | 990.6 |
| 20260502054618 | 33 | 317 | 4.3 | 0.0 | 0.00 | 0.00 | 0.00 | 72 | 989.8 |
| 20260502053137 | 33 | 318 | 4.3 | 0.0 | 0.00 | 0.00 | 0.00 | 73 | 990.2 |
| 20260502051617 | 33 | 320 | 5.2 | 0.0 | 0.00 | 0.00 | 0.00 | 73 | 990.2 |
| 20260502050149 | 34 | 324 | 6.1 | 0.0 | 0.00 | 0.00 | 0.00 | 73 | 990.2 |
| 20260502044619 | 34 | 323 | 6.1 | 0.0 | 0.00 | 0.00 | 0.00 | 70 | 989.7 |
| 20260502043136 | 34 | 331 | 6.1 | 0.0 | 0.00 | 0.00 | 0.00 | 71 | 989.9 |
| 20260502041618 | 34 | 329 | 6.1 | 0.0 | 0.00 | 0.00 | 0.00 | 71 | 989.9 |
| 20260502040150 | 34 | 325 | 7.0 | 0.0 | 0.00 | 0.00 | 0.00 | 71 | 989.9 |
| 20260502034618 | 34 | 321 | 7.0 | 0.0 | 0.00 | 0.00 | 0.00 | 64 | 989.2 |
| 20260502033138 | 35 | 326 | 5.2 | 0.0 | 0.00 | 0.00 | 0.00 | 68 | 988.9 |
| 20260502031617 | 35 | 324 | 5.2 | 0.0 | 0.00 | 0.00 | 0.00 | 68 | 988.9 |
| 20260502030148 | 35 | 323 | 6.1 | 0.0 | 0.00 | 0.00 | 0.00 | 68 | 988.9 |
| 20260502024616 | 35 | 316 | 6.1 | 0.0 | 0.00 | 0.00 | 0.00 | 64 | 988.2 |
| 20260502023135 | 35 | 314 | 6.1 | 0.0 | 0.00 | 0.00 | 0.00 | 68 | 989.3 |